Temp
13 13 13 13 13 13 12 12 12 12 12 12 12 12 11 11 11 11 11 10 10 10 10 11 11 11 11 11 11 11 11 11 11 11 11 11 11 11 11 11 11 11
13 13 13 13 13 13 13 13 12 12 12 12 12 12 12 12 12 11 11 11 11 11 11 11 11 11 11 11 11 11 11 11 11 11 11 11 11 11 11 11 11 11
14 14 13 13 13 13 13 13 13 13 12 12 12 12 12 12 12 12 12 11 11 11 11 11 11 11 12 12 11 11 11 11 11 11 11 11 11 11 11 11 11 11
14 14 14 14 13 13 13 13 13 13 13 13 13 12 12 12 12 12 12 12 12 11 11 11 11 11 12 12 12 11 11 11 11 11 11 11 11 11 11 11 11 11
14 14 14 14 13 13 13 13 13 13 13 13 13 13 13 13 13 13 12 12 12 12 12 12 11 11 11 12 12 12 11 11 11 11 11 11 11 11 11 11 11 11
14 14 14 14 14 14 13 13 13 13 13 13 13 13 13 13 13 13 13 13 12 12 12 12 12 11 12 12 12 12 12 11 11 11 12 12 11 11 11 11 11 11
14 14 14 14 14 14 14 14 13 13 13 13 13 13 13 13 13 13 13 13 13 12 12 12 12 12 12 12 12 12 12 12 11 11 12 12 12 11 11 11 11 11
14 14 14 14 14 14 14 14 14 13 13 13 13 13 13 13 13 13 13 13 13 12 12 12 13 12 12 12 12 12 12 12 12 11 12 12 12 11 11 11 11 11
15 14 14 14 14 14 14 14 14 14 13 13 13 13 13 13 13 13 13 13 13 13 12 12 13 13 12 12 12 12 12 12 12 12 12 12 12 12 11 11 11 11
15 15 15 14 14 14 14 14 14 14 14 14 13 13 13 13 13 13 13 13 13 13 13 12 13 13 13 12 13 13 13 12 12 12 12 12 12 12 12 12 11 11
15 15 15 15 15 14 14 14 14 14 14 14 14 13 13 13 13 13 13 13 13 13 13 13 13 13 13 13 13 13 13 12 12 12 12 12 12 12 12 12 12 12
15 15 15 15 15 15 14 14 14 14 14 14 14 14 13 13 13 13 13 13 13 13 13 13 13 13 13 13 13 13 13 13 12 12 12 12 12 12 12 12 12 12
15 15 15 15 15 15 15 15 14 14 14 14 14 14 14 14 14 14 13 13 13 13 13 13 13 13 13 13 13 13 13 13 13 13 12 12 12 12 12 12 12 12
16 15 15 15 15 15 15 15 15 15 14 15 15 15 14 14 14 14 14 14 13 13 13 13 13 13 13 13 13 13 13 13 13 13 13 13 12 12 12 12 12 12
16 15 15 15 15 15 15 15 15 15 14 15 15 15 15 14 14 14 14 14 14 14 13 13 13 13 13 13 14 14 13 14 14 13 13 13 13 13 12 12 12 12
16 15 15 15 15 15 15 15 15 15 14 14 15 15 15 14 14 14 14 15 14 14 14 14 14 14 14 14 14 14 14 14 14 14 13 13 13 13 13 13 12 12
16 16 16 15 15 15 15 15 15 15 15 14 15 15 15 14 14 14 14 14 15 15 14 15 15 15 15 14 14 14 14 14 14 14 14 13 13 13 13 13 12 12
16 16 16 16 16 15 15 15 15 15 15 15 15 15 15 15 14 14 14 14 15 15 15 15 15 15 15 15 15 14 14 14 14 14 14 14 13 13 13 13 13 12
16 16 16 16 16 16 16 16 15 15 15 15 15 15 15 15 15 15 14 14 15 15 15 15 15 16 16 16 15 15 14 14 14 14 14 14 14 13 13 13 13 13
17 16 16 16 16 16 16 16 16 15 15 15 15 15 15 15 15 15 15 15 15 15 15 16 16 16 16 16 15 15 15 14 14 14 14 14 14 14 14 13 13 13
17 17 17 16 16 16 16 16 16 16 16 16 16 16 16 16 15 15 15 15 15 15 15 15 16 16 16 16 15 15 15 15 14 14 14 14 14 14 14 14 13 13
17 17 17 17 17 17 17 17 17 17 16 16 16 16 16 16 16 16 15 15 15 15 15 15 15 15 15 15 15 15 15 15 15 14 14 14 14 14 14 14 14 14
17 17 17 17 17 17 17 17 17 17 16 16 16 16 16 16 16 16 15 15 15 15 15 15 15 15 15 15 15 15 15 15 15 15 15 15 14 14 14 14 14 14
17 17 17 17 17 17 17 17 17 17 16 16 16 16 16 16 16 15 15 15 16 16 15 15 15 15 16 16 15 15 15 15 15 15 15 15 15 15 15 15 14 14
18 18 17 17 17 17 17 17 17 17 16 16 16 16 16 16 16 16 16 16 16 16 16 16 15 16 16 16 16 15 15 14 14 14 15 15 15 15 15 15 15 15
18 18 18 18 17 17 17 17 17 17 16 16 16 16 16 16 16 16 16 16 16 16 16 16 16 16 16 16 16 16 15 15 14 14 15 15 15 15 15 15 15 15
Height
3190 3192 3194 3196 3197 3199 3200 3201 3202 3203 3204 3205 3206 3207 3208 3209 3210 3210 3210 3211 3212 3212 3213 3214 3215 3216 3217 3218 3219 3220 3221 3222 3223 3224 3224 3224 3225 3225 3225 3225 3226 3226
3188 3190 3192 3194 3195 3197 3198 3200 3201 3202 3203 3204 3205 3206 3207 3207 3208 3209 3209 3210 3210 3211 3212 3213 3214 3215 3215 3217 3218 3219 3220 3221 3222 3223 3223 3223 3224 3224 3224 3225 3225 3225
3186 3188 3190 3192 3193 3195 3197 3198 3199 3200 3201 3202 3203 3204 3205 3206 3206 3207 3208 3209 3209 3210 3210 3212 3213 3213 3214 3215 3217 3218 3219 3220 3221 3222 3222 3223 3223 3224 3224 3224 3224 3225
3183 3185 3187 3190 3191 3193 3194 3196 3197 3198 3199 3200 3201 3202 3203 3204 3205 3205 3206 3207 3208 3208 3209 3210 3211 3212 3213 3214 3215 3216 3217 3218 3219 3220 3221 3222 3222 3223 3223 3223 3224 3224
3181 3183 3185 3187 3189 3190 3192 3193 3195 3196 3197 3198 3199 3200 3201 3202 3203 3204 3205 3205 3206 3207 3207 3208 3209 3210 3211 3212 3213 3215 3215 3216 3217 3219 3220 3220 3221 3222 3222 3222 3223 3223
3178 3180 3182 3184 3186 3187 3189 3191 3192 3194 3195 3196 3197 3198 3199 3200 3201 3202 3203 3203 3204 3205 3206 3206 3208 3209 3209 3210 3212 3213 3214 3215 3216 3217 3218 3219 3220 3221 3221 3221 3222 3222
3175 3177 3179 3181 3183 3185 3186 3188 3190 3191 3192 3194 3195 3196 3197 3198 3199 3200 3201 3202 3203 3203 3204 3204 3205 3207 3207 3208 3210 3211 3212 3213 3214 3215 3216 3217 3218 3219 3220 3220 3221 3221
3172 3174 3177 3178 3180 3182 3183 3185 3187 3188 3190 3191 3192 3193 3194 3195 3197 3198 3199 3200 3200 3201 3202 3202 3203 3204 3205 3206 3207 3209 3210 3211 3212 3213 3214 3215 3216 3217 3218 3219 3219 3220
3169 3171 3173 3175 3177 3178 3180 3182 3184 3186 3187 3188 3189 3191 3192 3193 3194 3195 3196 3197 3198 3199 3200 3200 3201 3202 3203 3203 3205 3207 3208 3209 3210 3211 3212 3213 3214 3215 3216 3217 3217 3218
3166 3168 3170 3172 3174 3175 3177 3180 3181 3183 3184 3185 3187 3188 3189 3190 3192 3193 3193 3195 3196 3196 3197 3198 3198 3200 3201 3201 3202 3204 3206 3207 3208 3209 3210 3211 3212 3213 3214 3214 3215 3216
3163 3165 3167 3169 3171 3173 3174 3177 3178 3180 3181 3182 3184 3185 3186 3187 3188 3190 3190 3191 3193 3194 3194 3196 3196 3197 3198 3199 3200 3201 3203 3204 3205 3206 3207 3208 3209 3210 3211 3212 3212 3213
3160 3162 3164 3166 3168 3170 3172 3174 3175 3177 3178 3179 3181 3183 3184 3184 3185 3187 3188 3188 3190 3191 3192 3193 3194 3195 3196 3197 3197 3198 3199 3201 3202 3203 3204 3205 3207 3208 3208 3209 3210 3211
3158 3159 3161 3164 3166 3168 3169 3171 3172 3174 3175 3176 3177 3180 3181 3181 3181 3183 3185 3186 3187 3188 3189 3190 3191 3192 3193 3194 3195 3195 3196 3198 3199 3200 3201 3203 3204 3205 3206 3206 3207 3208
3156 3158 3160 3162 3164 3166 3167 3168 3170 3171 3173 3173 3174 3176 3178 3179 3179 3179 3181 3182 3183 3184 3186 3187 3188 3189 3190 3191 3192 3193 3193 3194 3196 3197 3198 3199 3201 3202 3203 3203 3204 3205
3154 3156 3158 3160 3162 3163 3164 3166 3167 3169 3170 3171 3172 3173 3175 3176 3177 3177 3177 3179 3180 3181 3182 3183 3184 3185 3186 3187 3188 3190 3190 3191 3193 3194 3195 3196 3197 3199 3199 3200 3201 3202
3152 3154 3156 3158 3159 3161 3162 3164 3165 3166 3168 3168 3169 3170 3172 3173 3174 3174 3174 3175 3177 3177 3178 3179 3180 3181 3182 3183 3185 3186 3188 3188 3189 3190 3191 3192 3193 3195 3196 3196 3197 3198
3149 3151 3153 3155 3157 3158 3160 3161 3163 3164 3165 3166 3166 3168 3169 3171 3172 3172 3172 3172 3173 3175 3175 3175 3176 3177 3179 3180 3182 3183 3185 3185 3186 3187 3188 3189 3190 3191 3192 3193 3194 3194
3145 3148 3150 3152 3154 3156 3157 3159 3161 3162 3163 3163 3164 3165 3166 3168 3169 3169 3170 3170 3170 3171 3172 3173 3173 3174 3175 3177 3178 3180 3181 3182 3182 3183 3184 3185 3186 3187 3188 3189 3190 3191
3142 3144 3147 3149 3151 3153 3154 3156 3157 3159 3160 3160 3161 3162 3163 3165 3166 3166 3167 3167 3167 3167 3169 3170 3171 3171 3172 3173 3175 3176 3178 3179 3179 3179 3180 3181 3182 3183 3184 3185 3186 3187
3138 3141 3143 3145 3147 3149 3151 3152 3154 3156 3157 3158 3158 3159 3160 3161 3162 3163 3164 3165 3165 3165 3165 3166 3167 3168 3169 3170 3172 3173 3174 3175 3176 3175 3176 3177 3178 3179 3180 3181 3182 3183
3134 3137 3140 3142 3144 3146 3147 3149 3151 3152 3154 3155 3155 3156 3157 3158 3159 3160 3161 3162 3162 3163 3162 3162 3163 3165 3166 3167 3168 3170 3171 3172 3172 3172 3172 3173 3173 3174 3175 3177 3178 3178
3131 3134 3137 3139 3140 3142 3144 3146 3147 3149 3150 3151 3152 3153 3154 3155 3156 3156 3157 3158 3159 3160 3160 3159 3160 3161 3163 3164 3165 3166 3167 3167 3168 3168 3167 3168 3168 3169 3171 3172 3173 3173
3129 3131 3133 3135 3137 3139 3140 3142 3144 3145 3147 3148 3149 3150 3151 3151 3152 3153 3154 3154 3155 3156 3156 3157 3157 3158 3159 3160 3162 3163 3163 3163 3163 3163 3163 3163 3164 3164 3165 3167 3168 3169
3126 3129 3130 3132 3133 3135 3137 3139 3141 3142 3144 3145 3146 3147 3148 3148 3149 3150 3151 3151 3151 3151 3152 3153 3154 3154 3154 3155 3157 3158 3159 3159 3159 3159 3158 3158 3159 3159 3160 3162 3163 3164
3123 3125 3127 3128 3130 3132 3134 3136 3137 3139 3140 3142 3143 3144 3144 3145 3145 3146 3146 3147 3147 3148 3148 3149 3149 3150 3150 3151 3151 3152 3154 3155 3155 3154 3154 3154 3154 3154 3155 3156 3157 3158
3120 3122 3124 3126 3128 3130 3131 3132 3134 3135 3136 3137 3139 3139 3140 3141 3141 3141 3142 3142 3143 3143 3144 3144 3145 3145 3146 3146 3147 3147 3148 3150 3150 3149 3149 3149 3149 3150 3150 3151 3151 3151
Wind_Speed
29 27 25 23 22 22 21 20 19 17 16 15 13 12 11 10 11 13 15 16 18 20 21 21 20 20 21 21 20 19 17 17 16 14 12 10 7 5 3 1 1 3
30 28 26 25 24 22 21 20 19 18 17 16 14 13 12 11 12 13 15 16 18 20 21 21 21 21 22 22 22 21 19 18 17 16 13 12 10 7 5 3 2 3
30 30 28 26 24 23 22 21 20 20 18 17 17 16 14 13 13 13 14 16 18 20 21 22 22 22 23 24 24 23 22 20 19 17 15 14 12 10 8 6 4 5
30 30 29 27 26 25 24 24 22 21 20 19 18 18 17 16 15 14 14 15 18 20 22 22 22 22 24 25 25 25 25 23 21 20 18 16 14 12 10 8 7 7
30 30 29 28 28 27 26 26 24 23 22 21 20 20 20 19 18 16 15 15 16 19 22 23 23 24 25 26 27 27 27 25 24 22 20 19 17 14 13 11 10 9
31 31 30 30 30 29 28 27 26 25 24 23 23 22 22 21 20 19 18 17 16 17 20 23 24 26 26 28 29 29 29 28 26 24 23 21 19 17 16 14 13 12
31 31 31 31 31 30 29 28 28 28 26 25 25 25 24 24 23 21 20 20 19 18 19 21 23 25 27 29 30 31 30 30 29 27 25 23 22 20 19 18 16 16
31 31 31 31 32 31 31 30 30 29 28 28 27 26 26 26 25 24 23 22 22 21 21 21 22 24 27 29 31 31 31 31 31 29 27 26 24 23 22 21 20 19
30 31 32 32 32 32 32 31 31 30 29 30 29 28 28 28 27 26 26 25 25 24 24 23 22 22 25 29 31 32 33 33 32 31 30 28 27 25 24 23 23 21
29 30 31 31 32 32 31 31 31 31 31 31 30 31 31 30 30 29 29 28 28 27 26 25 24 23 23 27 30 32 33 34 34 33 32 31 29 27 26 26 26 24
26 27 28 29 30 30 30 31 31 32 32 32 32 32 33 33 32 32 32 31 30 29 28 27 26 24 23 25 29 32 34 35 35 35 34 33 32 30 29 28 28 27
25 26 26 27 27 28 29 30 31 32 33 33 32 33 34 34 33 32 33 33 32 31 30 29 28 27 25 25 27 30 33 35 37 37 37 36 34 33 32 31 30 29
25 25 25 24 24 25 27 28 29 30 31 31 30 31 32 34 34 32 32 33 33 31 31 31 30 29 28 26 26 29 32 35 37 38 38 38 36 35 35 34 32 31
26 25 24 23 23 23 24 25 25 25 26 27 26 26 28 30 32 31 30 31 33 32 31 32 31 31 30 29 27 28 31 34 36 38 39 39 38 37 37 36 35 34
27 26 25 25 24 24 24 24 24 23 23 24 23 22 22 24 27 28 26 26 29 31 32 32 33 33 32 31 29 28 30 32 35 38 40 40 39 38 38 38 37 36
29 28 27 26 26 25 25 25 25 25 25 25 25 22 21 21 23 25 24 22 23 26 29 31 32 33 32 32 31 29 29 31 34 37 40 41 40 39 39 39 39 38
31 30 28 28 28 28 28 27 27 28 28 28 28 26 23 23 23 25 25 23 22 22 25 27 29 30 31 32 32 31 30 31 33 36 39 41 41 41 41 41 40 40
33 32 31 30 30 30 30 29 29 30 30 31 31 29 27 26 25 26 27 27 25 23 23 24 25 26 28 30 31 32 31 31 33 36 39 41 42 42 43 42 42 42
35 34 33 32 32 32 32 32 31 31 32 32 32 32 31 29 27 27 28 29 29 27 25 24 24 24 25 28 30 32 32 32 34 36 39 40 41 42 44 44 43 43
36 35 34 34 34 34 34 34 33 32 33 33 33 33 33 31 30 30 29 29 31 31 30 27 26 26 26 26 28 30 32 33 34 36 39 40 41 42 43 44 44 44
36 35 34 35 35 36 36 35 34 33 34 34 34 34 33 33 33 33 32 31 31 33 34 32 30 28 28 27 27 29 31 34 35 37 38 40 41 42 42 43 43 45
35 34 34 35 35 36 36 35 35 34 34 35 35 35 34 34 34 34 35 35 34 34 35 36 34 32 31 30 29 29 31 34 36 38 39 40 42 43 43 43 43 44
33 33 34 34 35 35 35 35 35 35 35 36 36 35 35 35 35 36 36 36 37 36 36 37 37 36 34 32 31 30 31 33 35 38 40 41 42 43 43 43 43 44
31 32 33 34 34 34 34 35 35 35 36 36 36 36 36 36 37 38 38 38 39 39 39 39 38 37 36 34 34 34 34 34 36 38 41 42 43 44 44 44 43 44
30 31 32 33 33 33 33 34 35 36 37 37 37 37 38 39 39 40 40 40 40 40 40 41 40 39 37 36 37 37 37 37 37 39 41 43 44 45 45 44 45 45
30 31 32 32 32 33 34 36 37 38 38 39 39 39 40 40 40 41 41 41 41 41 41 42 41 40 38 37 37 38 38 39 40 41 42 42 44 46 47 46 47 47
Wind_Direction
218 218 219 219 218 219 220 223 226 229 234 236 240 242 242 241 235 229 227 225 222 222 222 223 224 226 223 219 218 221 224 224 219 214 209 208 210 203 195 191 17 0
219 219 220 221 222 222 223 225 227 230 235 238 240 243 244 244 243 239 234 229 225 223 224 224 224 225 223 219 217 219 224 226 224 222 216 214 216 216 218 226 265 305
220 220 221 222 224 225 226 227 229 230 234 237 238 241 244 244 245 245 241 237 232 227 226 226 227 226 224 221 218 218 223 226 227 227 224 221 222 222 226 233 249 275
220 220 222 223 225 226 227 229 232 233 235 237 239 242 244 245 246 247 246 242 239 235 233 230 229 228 226 223 221 219 222 225 227 230 230 229 230 231 233 238 246 262
221 221 222 223 224 226 228 230 233 235 236 238 239 241 243 246 248 249 249 249 246 243 241 237 233 231 228 226 224 222 223 225 228 231 233 233 234 236 240 242 246 256
222 222 223 224 225 228 229 231 234 236 237 238 239 241 243 245 247 249 251 252 252 249 246 243 238 235 231 228 226 225 225 226 229 232 234 236 237 239 243 245 248 254
225 225 226 227 228 230 231 232 234 236 237 239 240 242 244 245 247 248 250 252 253 253 251 248 243 239 236 232 228 228 228 228 231 233 234 237 239 240 244 248 251 254
229 229 230 231 231 232 233 233 234 236 237 239 241 243 245 247 248 249 250 251 252 253 254 254 248 241 239 236 231 230 230 230 232 234 235 237 239 241 244 249 253 255
229 231 232 233 233 234 234 234 236 237 238 240 242 244 245 247 249 249 250 251 252 252 253 254 253 246 240 238 235 231 231 231 233 235 236 237 239 240 243 247 252 255
225 228 230 231 233 234 234 235 237 238 240 241 242 243 246 247 248 249 250 250 251 252 252 253 255 252 245 241 238 233 232 232 233 235 238 239 240 241 242 245 250 254
219 222 226 227 229 233 235 236 238 240 241 242 242 243 246 248 248 249 251 251 251 253 254 254 255 256 252 246 242 237 233 233 234 235 238 239 241 242 244 246 249 253
213 216 220 223 226 230 234 236 238 241 243 244 243 243 246 250 250 249 251 253 253 254 256 257 257 259 257 252 247 242 237 234 234 235 237 239 241 242 245 247 248 251
213 215 217 219 221 225 230 234 236 239 242 244 244 243 245 249 252 251 251 252 254 254 255 257 258 259 259 256 251 247 242 237 235 236 237 238 240 242 245 247 249 250
217 218 219 220 223 225 228 232 234 236 240 243 244 242 242 245 251 254 252 251 253 254 253 254 256 256 257 257 253 250 247 241 237 238 239 240 240 242 244 247 249 251
219 221 222 223 226 228 229 234 237 239 240 243 244 243 240 241 246 252 255 252 251 253 252 251 252 253 254 254 252 250 249 246 241 239 241 243 242 243 245 247 250 251
221 223 224 225 228 229 230 234 240 243 244 245 247 246 243 241 244 249 255 255 251 252 253 251 249 249 251 252 252 251 250 249 246 242 242 244 245 245 245 247 250 252
221 223 225 227 229 231 234 236 239 243 246 248 250 250 248 247 247 250 255 259 256 253 254 255 253 251 250 251 252 251 250 250 249 246 243 244 246 246 246 247 249 252
223 222 224 227 229 232 235 237 238 240 244 247 250 252 252 252 252 254 257 262 264 260 256 256 258 257 254 253 252 252 251 250 250 249 247 245 246 247 248 248 249 251
223 223 224 226 229 232 234 237 238 238 242 246 248 251 253 254 255 256 258 261 265 267 264 261 260 261 259 256 254 253 252 251 251 250 250 248 247 248 249 250 250 250
224 224 225 227 229 232 233 236 239 239 241 245 249 251 253 255 257 258 258 260 263 268 270 268 265 263 263 260 257 255 254 252 252 252 252 251 250 250 250 251 251 251
227 228 228 230 231 233 235 237 240 242 243 245 249 253 254 256 258 260 261 261 261 263 268 270 269 266 266 265 262 259 256 254 253 253 254 254 253 253 252 253 253 253
232 232 232 233 235 237 238 240 242 244 245 246 249 253 255 256 258 261 262 263 262 262 265 269 271 270 268 267 266 264 260 256 254 254 254 255 255 255 255 254 255 255
234 235 235 236 238 240 241 242 244 244 245 245 247 251 255 258 259 260 262 265 267 267 267 268 271 273 272 270 267 265 263 260 258 256 255 256 256 257 258 257 257 257
234 235 236 237 239 241 242 243 244 245 245 246 248 250 253 255 257 258 260 263 266 268 268 268 270 272 272 270 265 262 260 259 258 257 256 256 256 257 259 259 259 259
234 234 235 237 239 241 242 243 244 244 245 246 246 248 249 250 253 256 259 261 263 265 267 268 269 270 271 269 266 263 260 258 258 257 257 257 256 256 258 259 260 261
233 235 236 237 238 239 240 242 243 243 243 244 245 245 246 247 250 254 257 259 260 262 264 266 268 270 269 268 266 264 262 260 258 258 258 259 258 257 257 258 259 261